Voltar ao catálogo

STARLINK-36185

AtivoComunicaçõesVLEO
NORAD 67204·PAYLOAD·🇺🇸 United States

Lançado Dec 17, 2025 de Vandenberg Space Force Base

Loading…

Próximas Passagens (próximas 24 horas)

TLE

AtualizadoSource: CelesTrak SupGP

Época: Sep 15, 2026, 03:05 UTC

1 67204C 25304N   26258.12895833 -.00039992  00000+0 -33520-2 0  2581
2 67204  70.0019  56.7422 0002571 269.3095  54.7751 14.98345385    13

Acompanhe STARLINK-36185 em tempo real com AllMySat

Download on the App Store